When you browse on this site, cookies collect data to enhance your experience and personalize the content and advertising you see.
Visit our Privacy Policy to learn more. By continuing to use the site, you agree to this use of cookies and data.
  • En España
  • Lista de países
  • Para 7 días
  • Temperatura del agua
  • El tiempo en el mapa
  • Informadores
  • user-avatar
    Iniciar sesión

    Tiempo cada hora Alcalá de Henares

    Hoy, 21 Febrero, Viernes

    Tiempo Temperatura Precipitaciones Viento Presión Humedad
    00:00 +9°C° 0 mm 2 mps 716 mmHg 46%
    01:00 +9°C° 0 mm 2 mps 716 mmHg 47%
    02:00 +8°C° 0 mm 2 mps 716 mmHg 47%
    03:00 +8°C° 0 mm 2 mps 716 mmHg 47%
    04:00 +8°C° 0 mm 2 mps 716 mmHg 49%
    05:00 +7°C° 0 mm 2 mps 717 mmHg 51%
    06:00 +7°C° 0 mm 2 mps 717 mmHg 53%
    13:00 +19°C° 0 mm 1 mps 718 mmHg 27%
    14:00 +20°C° 0 mm 1 mps 718 mmHg 25%
    15:00 +21°C° 0 mm 1 mps 717 mmHg 22%
    16:00 +19°C° 0 mm 1 mps 717 mmHg 25%
    17:00 +16°C° 0 mm 1 mps 717 mmHg 29%
    18:00 +14°C° 0 mm 1 mps 717 mmHg 33%
    19:00 +14°C° 0 mm 1 mps 717 mmHg 35%
    20:00 +12°C° 0 mm 0 mps 717 mmHg 36%
    21:00 +11°C° 0 mm 0 mps 718 mmHg 38%
    22:00 +11°C° 0 mm 0 mps 718 mmHg 39%
    23:00 +11°C° 0 mm 1 mps 718 mmHg 40%

    Mañana, 22 Febrero, Sábado

    Tiempo Temperatura Precipitaciones Viento Presión Humedad
    00:00 +11°C° 0 mm 1 mps 718 mmHg 42%
    01:00 +10°C° 0 mm 1 mps 718 mmHg 43%
    02:00 +10°C° 0 mm 1 mps 718 mmHg 45%
    03:00 +9°C° 0 mm 1 mps 718 mmHg 46%
    04:00 +9°C° 0 mm 1 mps 718 mmHg 47%
    05:00 +9°C° 0 mm 1 mps 718 mmHg 47%
    06:00 +9°C° 0 mm 1 mps 718 mmHg 48%
    07:00 +10°C° 0 mm 1 mps 719 mmHg 45%
    08:00 +12°C° 0 mm 1 mps 719 mmHg 42%
    09:00 +13°C° 0 mm 1 mps 720 mmHg 39%
    10:00 +15°C° 0 mm 1 mps 720 mmHg 36%
    11:00 +18°C° 0 mm 1 mps 720 mmHg 32%
    12:00 +20°C° 0 mm 1 mps 720 mmHg 28%
    13:00 +21°C° 0 mm 1 mps 720 mmHg 26%
    14:00 +22°C° 0 mm 1 mps 720 mmHg 24%
    15:00 +22°C° 0 mm 1 mps 720 mmHg 22%
    16:00 +21°C° 0 mm 1 mps 720 mmHg 26%
    17:00 +19°C° 0 mm 1 mps 719 mmHg 30%
    18:00 +16°C° 0 mm 1 mps 719 mmHg 34%
    19:00 +15°C° 0 mm 1 mps 720 mmHg 34%
    20:00 +14°C° 0 mm 2 mps 720 mmHg 35%
    21:00 +14°C° 0 mm 2 mps 720 mmHg 35%
    22:00 +13°C° 0 mm 2 mps 720 mmHg 36%
    23:00 +13°C° 0 mm 2 mps 720 mmHg 36%

    Pasado mañana, 23 Febrero, Domingo

    Tiempo Temperatura Precipitaciones Viento Presión Humedad
    00:00 +12°C° 0 mm 2 mps 720 mmHg 36%
    01:00 +10°C° 0 mm 2 mps 720 mmHg 38%
    02:00 +10°C° 0 mm 2 mps 720 mmHg 40%
    03:00 +10°C° 0 mm 1 mps 720 mmHg 42%
    04:00 +10°C° 0 mm 1 mps 720 mmHg 43%
    05:00 +10°C° 0 mm 1 mps 720 mmHg 44%
    06:00 +9°C° 0 mm 1 mps 720 mmHg 45%
    07:00 +10°C° 0 mm 1 mps 720 mmHg 43%
    08:00 +12°C° 0 mm 1 mps 721 mmHg 40%
    09:00 +13°C° 0 mm 1 mps 721 mmHg 38%
    10:00 +15°C° 0 mm 1 mps 721 mmHg 36%
    11:00 +16°C° 0 mm 1 mps 721 mmHg 33%
    12:00 +19°C° 0 mm 1 mps 721 mmHg 31%
    13:00 +20°C° 0 mm 1 mps 720 mmHg 29%
    14:00 +20°C° 0 mm 1 mps 720 mmHg 27%
    15:00 +21°C° 0 mm 1 mps 719 mmHg 26%
    16:00 +19°C° 0 mm 1 mps 719 mmHg 29%
    17:00 +16°C° 0 mm 0 mps 719 mmHg 33%
    18:00 +14°C° 0 mm 0 mps 718 mmHg 36%
    19:00 +15°C° 0 mm 1 mps 719 mmHg 38%
    20:00 +14°C° 0 mm 1 mps 719 mmHg 39%
    21:00 +13°C° 0 mm 1 mps 719 mmHg 41%
    22:00 +13°C° 0 mm 1 mps 719 mmHg 43%
    23:00 +12°C° 0 mm 1 mps 719 mmHg 45%

    24 Febrero, Lunes

    Tiempo Temperatura Precipitaciones Viento Presión Humedad
    00:00 +12°C° 0 mm 1 mps 719 mmHg 47%
    01:00 +11°C° 0 mm 1 mps 719 mmHg 48%
    02:00 +11°C° 0 mm 1 mps 718 mmHg 49%
    03:00 +10°C° 0 mm 1 mps 718 mmHg 50%
    04:00 +9°C° 0 mm 0 mps 718 mmHg 51%
    05:00 +8°C° 0 mm 0 mps 718 mmHg 51%
    06:00 +8°C° 0 mm 0 mps 717 mmHg 52%
    07:00 +10°C° 0 mm 0 mps 718 mmHg 48%
    08:00 +11°C° 0 mm 0 mps 718 mmHg 45%
    09:00 +13°C° 0 mm 0 mps 718 mmHg 41%
    10:00 +15°C° 0 mm 1 mps 718 mmHg 38%
    11:00 +18°C° 0 mm 1 mps 718 mmHg 35%
    12:00 +18°C° 0 mm 2 mps 717 mmHg 32%
    13:00 +19°C° 0 mm 2 mps 717 mmHg 30%
    14:00 +20°C° 0 mm 3 mps 716 mmHg 29%
    15:00 +20°C° 0 mm 3 mps 716 mmHg 28%
    16:00 +19°C° 0 mm 3 mps 716 mmHg 32%
    17:00 +17°C° 0 mm 3 mps 716 mmHg 36%
    18:00 +16°C° 0 mm 3 mps 715 mmHg 40%
    19:00 +15°C° 0 mm 2 mps 716 mmHg 44%
    20:00 +14°C° 0 mm 2 mps 716 mmHg 47%
    21:00 +13°C° 0 mm 1 mps 716 mmHg 50%
    22:00 +12°C° 0 mm 1 mps 716 mmHg 52%
    23:00 +12°C° 0 mm 1 mps 716 mmHg 54%

    25 Febrero, Martes

    Tiempo Temperatura Precipitaciones Viento Presión Humedad
    00:00 +11°C° 0 mm 1 mps 716 mmHg 56%
    01:00 +10°C° 0 mm 1 mps 715 mmHg 58%
    02:00 +10°C° 0 mm 1 mps 715 mmHg 61%
    03:00 +9°C° 0 mm 1 mps 715 mmHg 63%
    04:00 +9°C° 0 mm 1 mps 715 mmHg 65%
    05:00 +9°C° 0 mm 1 mps 715 mmHg 67%
    06:00 +8°C° 0 mm 1 mps 715 mmHg 69%
    07:00 +9°C° 0 mm 1 mps 715 mmHg 65%
    08:00 +10°C° 0 mm 1 mps 715 mmHg 61%
    09:00 +12°C° 0 mm 1 mps 715 mmHg 56%
    10:00 +13°C° 0 mm 2 mps 715 mmHg 49%
    11:00 +14°C° 0 mm 3 mps 715 mmHg 42%
    12:00 +17°C° 0 mm 3 mps 715 mmHg 35%
    13:00 +18°C° 0 mm 4 mps 714 mmHg 32%
    14:00 +17°C° 0 mm 5 mps 714 mmHg 28%
    15:00 +19°C° 0 mm 6 mps 714 mmHg 25%
    16:00 +17°C° 0 mm 5 mps 714 mmHg 31%
    17:00 +15°C° 0 mm 4 mps 714 mmHg 36%
    18:00 +14°C° 0 mm 4 mps 713 mmHg 42%
    19:00 +13°C° 0 mm 4 mps 714 mmHg 45%
    20:00 +12°C° 0 mm 3 mps 714 mmHg 49%
    21:00 +11°C° 0 mm 3 mps 715 mmHg 52%
    22:00 +11°C° 0 mm 3 mps 715 mmHg 55%
    23:00 +10°C° 0 mm 2 mps 715 mmHg 57%

    26 Febrero, Miércoles

    Tiempo Temperatura Precipitaciones Viento Presión Humedad
    00:00 +10°C° 0 mm 2 mps 715 mmHg 60%
    01:00 +10°C° 0 mm 1 mps 715 mmHg 62%
    02:00 +10°C° 0 mm 1 mps 715 mmHg 65%
    03:00 +9°C° 0 mm 1 mps 715 mmHg 67%
    04:00 +9°C° 0 mm 1 mps 714 mmHg 70%
    05:00 +8°C° 0 mm 1 mps 714 mmHg 72%
    06:00 +8°C° 0 mm 1 mps 714 mmHg 75%
    07:00 +9°C° 0 mm 1 mps 715 mmHg 71%
    08:00 +10°C° 0 mm 1 mps 715 mmHg 67%
    09:00 +11°C° 0 mm 1 mps 715 mmHg 62%
    10:00 +13°C° 0 mm 1 mps 715 mmHg 57%
    11:00 +14°C° 0 mm 1 mps 715 mmHg 52%
    12:00 +15°C° 0 mm 1 mps 715 mmHg 47%
    13:00 +16°C° 0 mm 1 mps 714 mmHg 44%
    14:00 +17°C° 0 mm 2 mps 713 mmHg 41%
    15:00 +17°C° 0 mm 2 mps 713 mmHg 39%
    16:00 +16°C° 0 mm 2 mps 713 mmHg 42%
    17:00 +15°C° 0 mm 2 mps 712 mmHg 46%
    18:00 +14°C° 0 mm 2 mps 712 mmHg 50%
    19:00 +13°C° 0 mm 2 mps 713 mmHg 53%
    20:00 +13°C° 0 mm 2 mps 713 mmHg 56%
    21:00 +12°C° 0 mm 2 mps 713 mmHg 59%
    22:00 +10°C° 0 mm 2 mps 713 mmHg 61%
    23:00 +11°C° 0 mm 1 mps 713 mmHg 63%
    Mostrar más